Language: 


Des rapports , des résumés tant et plus, au choix de chacun....


Données statistiques de la station
Quotidien Rapport Aout 31, 2017 Unités:  Anglais    Métrique   les deux
« Précédent Jour
Suivant Jour »
Quotidien Hebdomadaire Mensuel Annuel Actuel
  Haut: Bas: Moyen:
Température: 73.2 °F 51.8 °F 60.6 °F
Pt de rosée: 59 °F 50 °F 54.9 °F
Humidité: 98 % 48 % 82 %
Vitesse du vent: 12.3 mph 0 mph 3.5 mph
Rafales: 13.4 mph - -
Vent:- - West
Pression: 30.1 in 29.9 in -
Précipitation: 0.06 in    
Historical Graphs
 
 
Données statistiques pour Aout 31, 2017
Heure Température Point de rosée Pression Vent Vitesse du vent Refales Humidité Pluie (taux horaire)
00:03 56.5 °F 57.2 °F 29.9 in NNW 7.6 mph 10.5 mph 98 % 0.07 in
00:08 56.1 °F 55.4 °F 29.9 in NNE 4.3 mph 10.5 mph 98 % 0.07 in
00:18 55.6 °F 55.4 °F 29.9 in NW 4.9 mph 9.6 mph 98 % 0.09 in
00:23 55.6 °F 55.4 °F 29.9 in NNW 7.4 mph 12.1 mph 98 % 0.09 in
00:28 55.2 °F 55.4 °F 29.9 in NNW 5.8 mph 12.1 mph 98 % 0.1 in
00:33 55 °F 55.4 °F 29.9 in West 2.7 mph 8.5 mph 98 % 0.1 in
00:38 55 °F 55.4 °F 29.9 in WNW 0.9 mph 8.5 mph 98 % 0.09 in
00:43 55 °F 55.4 °F 29.9 in West 0.9 mph 6 mph 98 % 0.07 in
00:48 55 °F 55.4 °F 29.9 in West 2.9 mph 3.1 mph 98 % 0.06 in
00:53 55 °F 55.4 °F 29.9 in WNW 1.6 mph 7.2 mph 98 % 0.05 in
00:58 54.9 °F 55.4 °F 29.9 in WNW 6.9 mph 8.9 mph 98 % 0.04 in
01:03 54.7 °F 55.4 °F 29.9 in West 2.7 mph 8.9 mph 98 % 0.03 in
01:08 54.7 °F 55.4 °F 29.9 in NNE 4.9 mph 6.9 mph 98 % 0.01 in
01:13 54.5 °F 55.4 °F 29.9 in WNW 2.7 mph 7.4 mph 98 % 0.01 in
01:19 54.5 °F 55.4 °F 29.9 in WNW 2.7 mph 7.4 mph 98 % 0.01 in
01:24 54.3 °F 55.4 °F 29.9 in West 2.5 mph 5.4 mph 98 % 0.01 in
01:29 54.3 °F 55.4 °F 29.9 in Calm   4.9 mph 98 % 0 in
01:34 54.3 °F 55.4 °F 29.9 in West 3.8 mph 6 mph 98 % 0 in
01:39 54.3 °F 55.4 °F 29.9 in NW 1.6 mph 6 mph 98 % 0 in
01:44 54.3 °F 55.4 °F 29.9 in Calm   5.8 mph 98 % 0 in
01:49 54.3 °F 55.4 °F 29.9 in NW 2.7 mph 3.8 mph 98 % 0 in
01:54 54.3 °F 55.4 °F 29.9 in Calm   4 mph 98 % 0 in
01:59 54.5 °F 55.4 °F 29.9 in WNW 4.7 mph 5.8 mph 98 % 0 in
02:04 54.5 °F 55.4 °F 29.9 in West 2.9 mph 7.2 mph 98 % 0 in
02:09 54.5 °F 55.4 °F 29.9 in West 2.9 mph 7.2 mph 98 % 0 in
02:14 54.5 °F 55.4 °F 29.9 in West 5.4 mph 6.3 mph 98 % 0 in
02:19 54.5 °F 55.4 °F 29.9 in NW 1.3 mph 6 mph 98 % 0 in
02:24 54.5 °F 55.4 °F 29.9 in North 5.4 mph 5.4 mph 98 % 0.01 in
02:29 54.5 °F 55.4 °F 29.9 in West 5.6 mph 5.6 mph 98 % 0.01 in
02:34 54.5 °F 55.4 °F 29.9 in West 4 mph 6.9 mph 98 % 0.01 in
02:39 54.5 °F 55.4 °F 29.9 in WNW 3.4 mph 6.9 mph 98 % 0.01 in
02:44 54.5 °F 55.4 °F 29.9 in West 3.1 mph 6.5 mph 98 % 0.01 in
02:49 54.7 °F 55.4 °F 29.9 in WNW 3.8 mph 6.5 mph 98 % 0.01 in
02:54 54.7 °F 55.4 °F 29.9 in West 2.7 mph 7.2 mph 98 % 0.01 in
02:59 54.7 °F 55.4 °F 29.9 in West 3.4 mph 7.2 mph 98 % 0.01 in
03:04 54.7 °F 55.4 °F 29.9 in West 4 mph 6.5 mph 98 % 0.01 in
03:09 54.7 °F 55.4 °F 29.9 in West 3.4 mph 6.5 mph 98 % 0.01 in
03:14 54.7 °F 55.4 °F 29.9 in Calm   3.4 mph 98 % 0.01 in
03:19 54.7 °F 55.4 °F 29.9 in West 2.7 mph 5.6 mph 98 % 0.01 in
03:24 54.7 °F 55.4 °F 29.9 in West 0.9 mph 5.6 mph 98 % 0 in
03:29 54.7 °F 55.4 °F 29.9 in Calm   5.6 mph 98 % 0 in
03:34 54.7 °F 55.4 °F 29.9 in NNW 3.1 mph 6 mph 98 % 0 in
03:39 54.9 °F 55.4 °F 29.9 in WSW 1.3 mph 6 mph 98 % 0 in
03:44 54.9 °F 55.4 °F 29.9 in WSW 2.7 mph 6 mph 98 % 0 in
03:49 54.9 °F 55.4 °F 29.9 in West 2.9 mph 6 mph 98 % 0 in
03:54 54.9 °F 55.4 °F 29.9 in West 3.8 mph 4.3 mph 98 % 0 in
03:59 54.9 °F 55.4 °F 29.9 in West 4.3 mph 4.3 mph 98 % 0 in
04:04 54.9 °F 55.4 °F 29.9 in West 3.1 mph 4.3 mph 98 % 0 in
04:09 54.9 °F 55.4 °F 29.9 in West 5.8 mph 5.8 mph 98 % 0 in
04:10 54.9 °F 55.4 °F 29.9 in West 4 mph 5.8 mph 98 % 0 in
04:15 54.9 °F 55.4 °F 29.9 in West 2.5 mph 5.8 mph 98 % 0 in
04:20 54.9 °F 55.4 °F 29.9 in West 3.4 mph 5.6 mph 98 % 0 in
04:25 54.9 °F 55.4 °F 29.9 in West 4.9 mph 6 mph 98 % 0 in
04:30 54.9 °F 55.4 °F 29.9 in West 5.6 mph 6.5 mph 98 % 0 in
04:35 54.9 °F 55.4 °F 29.9 in West 2.7 mph 6.5 mph 98 % 0 in
04:40 54.7 °F 55.4 °F 29.9 in West 3.1 mph 5.6 mph 98 % 0 in
04:50 54.9 °F 55.4 °F 29.9 in West 3.4 mph 6 mph 98 % 0.01 in
04:55 54.9 °F 55.4 °F 29.9 in West 7.4 mph 7.4 mph 98 % 0.01 in
05:00 54.9 °F 55.4 °F 29.9 in West 7.2 mph 8.1 mph 98 % 0.01 in
05:05 54.9 °F 55.4 °F 29.9 in Calm   8.1 mph 98 % 0.01 in
05:10 54.9 °F 55.4 °F 29.9 in WSW 3.1 mph 7.2 mph 98 % 0.01 in
05:17 54.9 °F 55.4 °F 29.9 in West 4.9 mph 6.5 mph 98 % 0.01 in
05:22 54.7 °F 55.4 °F 29.9 in WSW 1.6 mph 5.4 mph 98 % 0.01 in
05:24 54.7 °F 55.4 °F 29.9 in West 3.1 mph 6.3 mph 98 % 0.01 in
05:27 54.7 °F 55.4 °F 29.9 in WSW 4.9 mph 6.3 mph 98 % 0.01 in
05:32 54.7 °F 55.4 °F 29.9 in WSW 6 mph 7.6 mph 98 % 0.01 in
05:37 54.7 °F 55.4 °F 29.9 in West 4.5 mph 7.6 mph 98 % 0.01 in
05:42 54.9 °F 55.4 °F 29.9 in West 2.5 mph 6 mph 98 % 0.01 in
05:47 54.9 °F 55.4 °F 30 in WSW 4 mph 6 mph 98 % 0 in
05:52 54.9 °F 55.4 °F 30 in West 3.8 mph 6 mph 98 % 0 in
05:57 54.9 °F 55.4 °F 30 in West 5.6 mph 7.4 mph 98 % 0 in
06:02 54.9 °F 55.4 °F 29.9 in West 3.6 mph 7.4 mph 98 % 0 in
06:07 54.9 °F 55.4 °F 29.9 in West 4 mph 7.2 mph 98 % 0 in
06:12 55 °F 55.4 °F 29.9 in West 0.9 mph 6.5 mph 98 % 0 in
06:13 55 °F 55.4 °F 29.9 in West 5.6 mph 6.5 mph 98 % 0 in
06:18 54.9 °F 55.4 °F 30 in West 4.9 mph 6.5 mph 98 % 0 in
06:23 54.9 °F 55.4 °F 30 in West 5.4 mph 5.8 mph 98 % 0 in
06:28 54.7 °F 55.4 °F 30 in WSW 4.3 mph 5.8 mph 98 % 0 in
06:33 54.3 °F 55.4 °F 30 in West 4.3 mph 5.8 mph 98 % 0 in
06:38 54.1 °F 55.4 °F 30 in Calm   5.6 mph 98 % 0 in
06:43 54.1 °F 55.4 °F 30 in WSW 4.3 mph 4.7 mph 98 % 0 in
06:49 54.1 °F 55.4 °F 30 in Calm   4.5 mph 98 % 0 in
06:54 54 °F 53.6 °F 30 in Calm   3.6 mph 98 % 0 in
06:59 53.8 °F 53.6 °F 30 in Calm   4.7 mph 98 % 0 in
07:04 53.6 °F 53.6 °F 30 in Calm   4.7 mph 98 % 0 in
07:09 53.2 °F 53.6 °F 30 in Calm   3.6 mph 98 % 0 in
07:14 53.2 °F 53.6 °F 30 in Calm   3.6 mph 98 % 0 in
07:19 53.1 °F 53.6 °F 30 in Calm   3.6 mph 98 % 0 in
07:24 53.1 °F 53.6 °F 30 in Calm     98 % 0 in
07:29 52.9 °F 53.6 °F 30 in West 2.2 mph 2.2 mph 98 % 0 in
07:34 52.9 °F 53.6 °F 30 in Calm   3.1 mph 98 % 0 in
07:39 52.7 °F 53.6 °F 30 in Calm   3.1 mph 98 % 0 in
07:44 52.5 °F 51.8 °F 30 in Calm     98 % 0 in
07:49 52.7 °F 53.6 °F 30 in Calm     98 % 0 in
07:54 52.9 °F 53.6 °F 30 in WSW 2.7 mph 2.7 mph 98 % 0 in
07:59 53.1 °F 53.6 °F 30 in WSW 2.7 mph 2.7 mph 98 % 0 in
08:04 53.4 °F 53.6 °F 30 in Calm   2.7 mph 98 % 0 in
08:09 53.8 °F 53.6 °F 30 in West 4.3 mph 4.3 mph 98 % 0 in
08:14 54.1 °F 55.4 °F 30 in West 4.3 mph 4.3 mph 98 % 0 in
08:19 54.5 °F 55.4 °F 30 in West 4.3 mph 4.3 mph 98 % 0 in
08:24 54.5 °F 55.4 °F 30 in West 4.3 mph 4.3 mph 98 % 0 in
08:29 54.9 °F 55.4 °F 30 in West 4.3 mph 4.3 mph 98 % 0 in
08:34 55.2 °F 55.4 °F 30 in West 4.3 mph 4.3 mph 98 % 0 in
08:39 55.6 °F 55.4 °F 30 in WSW 5.4 mph 5.4 mph 98 % 0 in
08:44 55.8 °F 55.4 °F 30 in WSW 5.4 mph 5.4 mph 98 % 0 in
08:48 55.9 °F 55.4 °F 30 in WSW 7.8 mph 7.8 mph 98 % 0 in
08:53 56.3 °F 57.2 °F 30 in WSW 5.8 mph 7.8 mph 98 % 0 in
08:58 56.7 °F 57.2 °F 30 in West 4.7 mph 7.8 mph 98 % 0 in
09:03 56.8 °F 57.2 °F 30 in WSW 7.8 mph 7.8 mph 98 % 0 in
09:08 57.4 °F 57.2 °F 30 in WSW 7.8 mph 7.8 mph 98 % 0 in
09:13 57.6 °F 57.2 °F 30 in WSW 7.8 mph 7.8 mph 97 % 0 in
09:18 58.1 °F 57.2 °F 30 in WSW 4.7 mph 7.8 mph 97 % 0 in
09:23 58.3 °F 57.2 °F 30 in WSW 4.7 mph 7.8 mph 97 % 0 in
09:28 58.6 °F 57.2 °F 30 in West 6.5 mph 6.5 mph 96 % 0 in
09:33 58.8 °F 59 °F 30.1 in West 6.5 mph 6.5 mph 96 % 0 in
09:38 59.4 °F 59 °F 30.1 in West 6.5 mph 6.5 mph 95 % 0 in
09:43 59.5 °F 59 °F 30.1 in West 3.8 mph 6.5 mph 95 % 0 in
09:48 60.3 °F 59 °F 30 in WSW 4 mph 6.5 mph 95 % 0 in
09:53 60.6 °F 59 °F 30 in WNW 4 mph 6.3 mph 95 % 0 in
09:58 61.3 °F 59 °F 30 in WSW 3.6 mph 6.3 mph 94 % 0 in
10:03 61.5 °F 59 °F 30 in West 0.9 mph 6.3 mph 94 % 0 in
10:08 61.9 °F 59 °F 30 in WSW 4.3 mph 8.5 mph 92 % 0 in
10:13 62.2 °F 59 °F 30 in West 4 mph 8.5 mph 91 % 0 in
10:19 62.4 °F 59 °F 30 in WSW 7.8 mph 7.8 mph 90 % 0 in
10:24 62.6 °F 59 °F 30 in WSW 7.4 mph 7.8 mph 90 % 0 in
10:29 63.1 °F 59 °F 30 in Calm   7.8 mph 87 % 0 in
10:34 63.3 °F 59 °F 30 in SW 6.5 mph 7.6 mph 84 % 0 in
10:39 63.5 °F 59 °F 30 in West 3.4 mph 7.6 mph 84 % 0 in
10:44 63.7 °F 59 °F 30 in West 6.5 mph 6.5 mph 82 % 0 in
10:49 63.7 °F 59 °F 30.1 in West 4.3 mph 6.9 mph 82 % 0 in
10:54 64.4 °F 57.2 °F 30.1 in West 4.5 mph 6.9 mph 78 % 0 in
10:59 64.4 °F 57.2 °F 30.1 in WSW 6.5 mph 8.1 mph 78 % 0 in
11:04 64.6 °F 57.2 °F 30.1 in SW 8.1 mph 8.1 mph 77 % 0 in
11:09 64.8 °F 55.4 °F 30.1 in West 7.8 mph 11.4 mph 73 % 0 in
11:14 64.6 °F 55.4 °F 30.1 in West 3.8 mph 11.4 mph 73 % 0 in
11:19 64.4 °F 55.4 °F 30 in West 4.3 mph 10.5 mph 73 % 0 in
11:24 64 °F 55.4 °F 30 in West 7.2 mph 10.5 mph 75 % 0 in
11:29 64 °F 55.4 °F 30 in WSW 8.1 mph 10.3 mph 75 % 0 in
11:34 64 °F 55.4 °F 30.1 in WSW 7.4 mph 9.8 mph 75 % 0 in
11:39 64 °F 55.4 °F 30.1 in SSW 5.8 mph 9.8 mph 75 % 0 in
11:45 65.7 °F 57.2 °F 30.1 in West 7.8 mph 8.5 mph 74 % 0 in
11:50 65.5 °F 55.4 °F 30.1 in West 7.2 mph 8.5 mph 71 % 0 in
11:55 65.5 °F 55.4 °F 30.1 in WSW 5.4 mph 8.5 mph 71 % 0 in
12:00 66.7 °F 57.2 °F 30.1 in WSW 5.4 mph 8.9 mph 70 % 0 in
12:05 66.7 °F 57.2 °F 30.1 in WSW 6.3 mph 8.9 mph 70 % 0 in
12:10 67.1 °F 57.2 °F 30.1 in West 4 mph 8.1 mph 68 % 0 in
12:15 68 °F 57.2 °F 30.1 in West 4 mph 7.4 mph 68 % 0 in
12:20 67.8 °F 57.2 °F 30.1 in WSW 8.5 mph 9.2 mph 67 % 0 in
12:25 67.6 °F 55.4 °F 30.1 in NNW 3.1 mph 9.2 mph 65 % 0 in
12:30 68.4 °F 57.2 °F 30.1 in West 6.3 mph 8.7 mph 66 % 0 in
12:35 68.7 °F 57.2 °F 30.1 in West 4.7 mph 8.5 mph 65 % 0 in
12:40 68.7 °F 57.2 °F 30.1 in WSW 1.1 mph 9.8 mph 65 % 0 in
12:45 68.5 °F 55.4 °F 30.1 in NW 6.3 mph 9.8 mph 61 % 0 in
12:50 68 °F 53.6 °F 30.1 in West 7.2 mph 8.1 mph 59 % 0 in
12:55 68.7 °F 53.6 °F 30.1 in West 6 mph 8.1 mph 59 % 0 in
13:00 69.3 °F 55.4 °F 30.1 in West 4.3 mph 8.1 mph 61 % 0 in
13:05 69.8 °F 55.4 °F 30.1 in SSW 3.8 mph 7.4 mph 61 % 0 in
13:10 69.8 °F 55.4 °F 30.1 in WSW 5.4 mph 7.6 mph 61 % 0 in
13:15 69.6 °F 55.4 °F 30.1 in West 8.9 mph 8.9 mph 58 % 0 in
13:20 69.6 °F 53.6 °F 30.1 in WSW 5.8 mph 8.9 mph 57 % 0 in
13:25 69.6 °F 53.6 °F 30.1 in West 6.9 mph 8.1 mph 57 % 0 in
13:30 67.8 °F 55.4 °F 30.1 in West 2.9 mph 8.1 mph 62 % 0 in
13:35 67.8 °F 55.4 °F 30.1 in West 10.3 mph 10.3 mph 62 % 0 in
13:40 69.4 °F 55.4 °F 30.1 in SW 5.8 mph 10.3 mph 60 % 0 in
13:45 69.4 °F 55.4 °F 30.1 in SSW 4.7 mph 10.3 mph 60 % 0 in
13:50 69.3 °F 55.4 °F 30.1 in West 2.7 mph 9.6 mph 59 % 0 in
13:55 69.1 °F 53.6 °F 30.1 in WSW 6 mph 13.4 mph 56 % 0 in
14:00 69.1 °F 51.8 °F 30.1 in West 7.8 mph 13.4 mph 55 % 0 in
14:05 68.9 °F 51.8 °F 30.1 in WSW 6 mph 9.6 mph 52 % 0 in
14:10 68.9 °F 51.8 °F 30.1 in West 6.5 mph 10.7 mph 52 % 0 in
14:15 68.9 °F 51.8 °F 30.1 in West 5.8 mph 11 mph 52 % 0 in
14:20 70 °F 51.8 °F 30.1 in WNW 5.4 mph 11 mph 53 % 0 in
14:25 69.6 °F 51.8 °F 30.1 in West 6 mph 10.7 mph 53 % 0 in
14:30 69.3 °F 51.8 °F 30.1 in West 5.6 mph 9.8 mph 54 % 0 in
14:35 69.6 °F 53.6 °F 30.1 in West 5.4 mph 8.7 mph 55 % 0 in
14:40 69.6 °F 53.6 °F 30.1 in Calm   5.4 mph 55 % 0 in
14:45 71.1 °F 55.4 °F 30.1 in WSW 2.7 mph 9.8 mph 58 % 0 in
14:50 71.4 °F 55.4 °F 30.1 in WSW 6.7 mph 11 mph 57 % 0 in
14:55 71.4 °F 55.4 °F 30.1 in WSW 6.3 mph 11 mph 57 % 0 in
15:00 71.4 °F 55.4 °F 30.1 in SSW 7.4 mph 8.1 mph 57 % 0 in
15:05 71.4 °F 55.4 °F 30.1 in South 4.7 mph 8.5 mph 57 % 0 in
15:11 73.2 °F 55.4 °F 30.1 in WSW 4.3 mph 8.5 mph 53 % 0 in
15:16 73.2 °F 55.4 °F 30.1 in South 3.8 mph 9.8 mph 53 % 0 in
15:21 70.9 °F 51.8 °F 30.1 in SW 4.9 mph 10.7 mph 51 % 0 in
15:26 70.5 °F 51.8 °F 30.1 in South 8.1 mph 10.7 mph 51 % 0 in
15:31 70.5 °F 51.8 °F 30.1 in SW 9.6 mph 10.1 mph 51 % 0 in
15:36 70.7 °F 51.8 °F 30.1 in West 7.4 mph 12.3 mph 49 % 0 in
15:41 70.7 °F 51.8 °F 30.1 in West 12.3 mph 13.2 mph 49 % 0 in
15:46 70.7 °F 51.8 °F 30.1 in WSW 5.8 mph 13.2 mph 49 % 0 in
15:51 70.7 °F 51.8 °F 30.1 in West 8.1 mph 12.3 mph 49 % 0 in
15:56 70.3 °F 50 °F 30.1 in WSW 7.2 mph 12.3 mph 48 % 0 in
16:01 71.1 °F 53.6 °F 30.1 in West 8.1 mph 10.7 mph 53 % 0 in
16:06 71.1 °F 53.6 °F 30.1 in West 8.1 mph 13.2 mph 53 % 0 in
16:11 71.2 °F 55.4 °F 30.1 in North 5.6 mph 13.2 mph 59 % 0 in
16:16 71.1 °F 57.2 °F 30.1 in NNW 5.4 mph 7.2 mph 60 % 0 in
16:21 71.1 °F 57.2 °F 30.1 in SSW 6 mph 6.5 mph 60 % 0 in
16:26 69.1 °F 55.4 °F 30.1 in East 4.9 mph 9.8 mph 61 % 0 in
16:31 68.9 °F 55.4 °F 30.1 in WNW 5.8 mph 9.8 mph 61 % 0 in
16:36 68.9 °F 55.4 °F 30.1 in WNW 6 mph 7.2 mph 62 % 0 in
16:41 68.9 °F 55.4 °F 30.1 in West 8.5 mph 8.5 mph 62 % 0 in
16:46 68.9 °F 55.4 °F 30.1 in WNW 3.8 mph 8.5 mph 62 % 0 in
16:51 68.9 °F 55.4 °F 30.1 in WNW 3.1 mph 8.5 mph 62 % 0 in
16:56 68.9 °F 55.4 °F 30.1 in NW 5.6 mph 7.2 mph 62 % 0 in
17:01 68.9 °F 55.4 °F 30.1 in West 6.5 mph 7.6 mph 62 % 0 in
17:06 68.9 °F 55.4 °F 30.1 in West 8.1 mph 8.1 mph 62 % 0 in
17:11 66.9 °F 53.6 °F 30.1 in West 3.4 mph 10.3 mph 60 % 0 in
17:17 66.2 °F 51.8 °F 30.1 in WSW 6.3 mph 10.3 mph 61 % 0 in
17:22 66 °F 53.6 °F 30.1 in West 7.6 mph 10.3 mph 63 % 0 in
17:27 65.8 °F 53.6 °F 30.1 in West 4.9 mph 10.3 mph 63 % 0 in
17:32 65.8 °F 53.6 °F 30.1 in West 4.3 mph 8.7 mph 63 % 0 in
17:37 65.8 °F 53.6 °F 30.1 in WNW 3.1 mph 8.1 mph 63 % 0 in
17:42 65.1 °F 53.6 °F 30.1 in West 4.3 mph 6.3 mph 67 % 0 in
17:47 65.1 °F 53.6 °F 30.1 in West 6 mph 6.5 mph 67 % 0 in
17:52 65.1 °F 53.6 °F 30.1 in WSW 2.7 mph 6.5 mph 67 % 0 in
17:57 65.1 °F 53.6 °F 30.1 in Calm   4.7 mph 67 % 0 in
18:02 68.7 °F 57.2 °F 30.1 in West 3.4 mph 6.3 mph 66 % 0 in
18:07 68.7 °F 57.2 °F 30.1 in West 3.4 mph 6.3 mph 66 % 0 in
18:12 68 °F 55.4 °F 30.1 in SSW 5.8 mph 7.4 mph 64 % 0 in
18:17 68 °F 55.4 °F 30.1 in WSW 6.3 mph 7.6 mph 64 % 0 in
18:22 68.4 °F 55.4 °F 30.1 in WSW 2.5 mph 7.6 mph 64 % 0 in
18:27 68.5 °F 55.4 °F 30.1 in WSW 2.5 mph 6.5 mph 64 % 0 in
18:32 68.5 °F 55.4 °F 30.1 in WSW 3.8 mph 6.5 mph 64 % 0 in
18:37 68.5 °F 55.4 °F 30.1 in WSW 3.6 mph 6.5 mph 64 % 0 in
18:42 66.9 °F 55.4 °F 30.1 in WSW 3.8 mph 6.3 mph 66 % 0 in
18:47 66.6 °F 55.4 °F 30.1 in WSW 3.6 mph 5.6 mph 66 % 0 in
18:52 65.8 °F 55.4 °F 30.1 in Calm   5.6 mph 69 % 0 in
18:57 65.8 °F 55.4 °F 30.1 in West 3.6 mph 3.8 mph 69 % 0 in
19:02 66.4 °F 55.4 °F 30.1 in West 1.3 mph 6.3 mph 68 % 0 in
19:07 66.4 °F 55.4 °F 30.1 in Calm   6.3 mph 68 % 0 in
19:13 66.4 °F 55.4 °F 30.1 in West 1.3 mph 4.7 mph 68 % 0 in
19:18 67.1 °F 55.4 °F 30.1 in Calm   5.4 mph 67 % 0 in
19:23 66.6 °F 55.4 °F 30.1 in WSW 2 mph 5.4 mph 67 % 0 in
19:28 66.6 °F 55.4 °F 30.1 in Calm   4.3 mph 67 % 0 in
19:33 66.6 °F 55.4 °F 30.1 in Calm   4.3 mph 67 % 0 in
19:38 65.5 °F 55.4 °F 30.1 in Calm   1.6 mph 69 % 0 in
19:43 65.5 °F 55.4 °F 30.1 in Calm   3.4 mph 69 % 0 in
19:44 65.5 °F 55.4 °F 30.1 in Calm   3.4 mph 69 % 0 in
19:49 65.5 °F 55.4 °F 30.1 in Calm   3.4 mph 69 % 0 in
19:54 65.5 °F 55.4 °F 30.1 in Calm   0.9 mph 69 % 0 in
19:59 63.9 °F 55.4 °F 30.1 in Calm     72 % 0 in
20:04 63.9 °F 55.4 °F 30.1 in Calm     72 % 0 in
20:10 63.9 °F 55.4 °F 30.1 in Calm     72 % 0 in
20:15 62.8 °F 55.4 °F 30.1 in Calm     74 % 0 in
20:20 62.8 °F 55.4 °F 30.1 in Calm     74 % 0 in
20:25 62.4 °F 55.4 °F 30.1 in Calm     76 % 0 in
20:30 62.4 °F 55.4 °F 30.1 in Calm     76 % 0 in
20:35 61.9 °F 55.4 °F 30.1 in Calm     78 % 0 in
20:40 61.5 °F 55.4 °F 30.1 in Calm     78 % 0 in
20:45 61.5 °F 55.4 °F 30.1 in Calm     78 % 0 in
20:50 61.5 °F 55.4 °F 30.1 in WSW 3.6 mph 3.6 mph 78 % 0 in
20:55 60.4 °F 55.4 °F 30.1 in Calm   3.6 mph 80 % 0 in
21:00 60.4 °F 55.4 °F 30.1 in Calm   4.7 mph 80 % 0 in
21:05 60.4 °F 55.4 °F 30.1 in Calm   4.7 mph 80 % 0 in
21:10 60.4 °F 55.4 °F 30.1 in Calm   2 mph 80 % 0 in
21:15 60.4 °F 55.4 °F 30.1 in Calm     80 % 0 in
21:20 60.4 °F 55.4 °F 30.1 in Calm     80 % 0 in
21:25 58.6 °F 53.6 °F 30.1 in Calm     82 % 0 in
21:30 58.6 °F 53.6 °F 30.1 in Calm     82 % 0 in
21:35 58.6 °F 53.6 °F 30.1 in Calm     82 % 0 in
21:40 57.6 °F 53.6 °F 30.1 in Calm     83 % 0 in
21:45 57.6 °F 53.6 °F 30.1 in Calm     83 % 0 in
21:50 57.6 °F 53.6 °F 30.1 in Calm     83 % 0 in
21:55 56.1 °F 51.8 °F 30.1 in Calm     84 % 0 in
22:00 55.8 °F 51.8 °F 30.1 in Calm     84 % 0 in
22:05 55.8 °F 51.8 °F 30.1 in Calm     84 % 0 in
22:10 55.8 °F 51.8 °F 30.1 in Calm     84 % 0 in
22:15 55.8 °F 51.8 °F 30.1 in Calm     84 % 0 in
22:20 55.8 °F 51.8 °F 30.1 in Calm     84 % 0 in
22:31 54 °F 50 °F 30.1 in Calm     87 % 0 in
22:36 53.4 °F 50 °F 30.1 in Calm     88 % 0 in
22:41 53.4 °F 50 °F 30.1 in Calm     88 % 0 in
22:46 53.2 °F 50 °F 30.1 in Calm     89 % 0 in
22:51 53.2 °F 50 °F 30.1 in Calm     89 % 0 in
22:56 53.2 °F 50 °F 30.1 in Calm     89 % 0 in
23:01 53.2 °F 50 °F 30.1 in Calm     89 % 0 in
23:06 53.2 °F 50 °F 30.1 in Calm     89 % 0 in
23:11 52.5 °F 50 °F 30.1 in Calm     91 % 0 in
23:16 52.5 °F 50 °F 30.1 in Calm     91 % 0 in
23:21 52.5 °F 50 °F 30.1 in Calm     91 % 0 in
23:26 52.5 °F 50 °F 30.1 in Calm     91 % 0 in
23:31 52.5 °F 50 °F 30.1 in Calm     91 % 0 in
23:36 52.2 °F 50 °F 30.1 in Calm     93 % 0 in
23:41 52.2 °F 50 °F 30.1 in Calm     93 % 0 in
23:46 51.8 °F 50 °F 30.1 in Calm     93 % 0 in
23:51 51.8 °F 50 °F 30.1 in Calm     93 % 0 in
23:56 51.8 °F 50 °F 30.1 in Calm     93 % 0 in
Le Gheer Warneton
Courtoisie de Weather Underground - 2.25 mb

Mise a jour : 18/12/2017 17:24:11
Généré par Cumulus 1.9.4 (1099)